TimeCST,TemperatureF,Dew PointF,Humidity,Sea Level PressureIn,VisibilityMPH,Wind Direction,Wind SpeedMPH,Gust SpeedMPH,PrecipitationIn,Events,Conditions,WindDirDegrees,DateUTC
12:53 AM,37.0,33.1,86,30.22,10.0,Calm,Calm,-,N/A,,Clear,0,2011-11-12 06:53:00
1:53 AM,36.0,32.0,86,30.22,10.0,Calm,Calm,-,N/A,,Clear,0,2011-11-12 07:53:00
2:53 AM,35.1,32.0,89,30.20,10.0,Calm,Calm,-,N/A,,Clear,0,2011-11-12 08:53:00
3:53 AM,35.1,33.1,92,30.19,10.0,Calm,Calm,-,N/A,,Clear,0,2011-11-12 09:53:00
4:53 AM,36.0,33.1,89,30.20,10.0,Calm,Calm,-,N/A,,Clear,0,2011-11-12 10:53:00
5:53 AM,35.1,33.1,92,30.21,7.0,Calm,Calm,-,N/A,,Clear,0,2011-11-12 11:53:00
6:53 AM,35.1,34.0,96,30.22,9.0,Calm,Calm,-,N/A,,Clear,0,2011-11-12 12:53:00
7:53 AM,46.9,43.0,86,30.23,10.0,SSE,4.6,-,N/A,,Clear,150,2011-11-12 13:53:00
8:53 AM,55.9,45.0,67,30.23,10.0,SSE,10.4,-,N/A,,Clear,160,2011-11-12 14:53:00
9:53 AM,62.1,46.0,56,30.23,10.0,SSE,12.7,-,N/A,,Clear,160,2011-11-12 15:53:00
10:53 AM,64.0,46.0,52,30.23,10.0,SSE,11.5,-,N/A,,Clear,150,2011-11-12 16:53:00
11:53 AM,68.0,46.9,47,30.21,10.0,SSE,15.0,20.7,N/A,,Scattered Clouds,160,2011-11-12 17:53:00
12:53 PM,66.9,48.0,51,30.19,10.0,South,10.4,-,N/A,,Overcast,190,2011-11-12 18:53:00
1:53 PM,68.0,48.0,49,30.16,10.0,South,10.4,-,N/A,,Overcast,180,2011-11-12 19:53:00
2:53 PM,70.0,48.9,47,30.14,10.0,South,12.7,21.9,N/A,,Scattered Clouds,170,2011-11-12 20:53:00
3:53 PM,68.0,48.9,50,30.15,10.0,South,15.0,18.4,N/A,,Mostly Cloudy,170,2011-11-12 21:53:00
4:53 PM,64.9,48.9,56,30.13,10.0,SSE,10.4,-,N/A,,Clear,160,2011-11-12 22:53:00
5:53 PM,62.1,48.9,62,30.14,10.0,SSE,9.2,-,N/A,,Clear,150,2011-11-12 23:53:00
6:53 PM,60.1,48.9,67,30.13,10.0,SSE,10.4,-,N/A,,Clear,160,2011-11-13 00:53:00
7:53 PM,57.9,48.9,72,30.14,10.0,SSE,6.9,-,N/A,,Clear,150,2011-11-13 01:53:00
8:53 PM,57.0,48.9,74,30.15,10.0,SSE,8.1,-,N/A,,Clear,150,2011-11-13 02:53:00
9:53 PM,55.9,48.9,77,30.12,10.0,SSE,8.1,-,N/A,,Clear,150,2011-11-13 03:53:00
10:53 PM,55.9,50.0,80,30.10,10.0,SSE,9.2,-,N/A,,Clear,150,2011-11-13 04:53:00
11:53 PM,55.9,51.1,84,30.09,10.0,SSE,9.2,-,N/A,,Clear,160,2011-11-13 05:53:00